Weather History for KABI - December, 2011

Change the Weather History Date:

Sunday, December 18, 2011

  Actual Average Record
Temperature  
Mean Temperature 55 °F 44 °F  
Max Temperature 59 °F 56 °F 78 °F (1980)
Min Temperature 50 °F 33 °F 12 °F (1983)
Degree Days  
Heating Degree Days 10 20  
Month to date heating degree days 374 339  
Since 1 July heating degree days 761 772  
Cooling Degree Days 0 0  
Month to date cooling degree days 0 0  
Year to date cooling degree days 3517 2408  
Growing Degree Days 4 (Base 50)    
Moisture  
Dew Point 42 °F    
Average Humidity 66    
Maximum Humidity 83    
Minimum Humidity 48    
Precipitation  
Precipitation T in 0.04 in 0.84 in (1952)
Month to date precipitation 1.40 0.73  
Year to date precipitation 16.30 24.32  
Sea Level Pressure  
Sea Level Pressure 30.17 in    
Wind  
Wind Speed 10 mph (South)    
Max Wind Speed 21 mph    
Max Gust Speed 25 mph    
Visibility 10 miles    
Events Thunderstorm    
T = Trace of Precipitation, MM = Missing Value Source: NWS Daily Summary

Daily Weather History Graph

Daily Weather History Graph

Search for Another Location

Airport or City:

Trip Planner

Search our weather history database for the weather conditions in past years. The results will help you decide how hot, cold, wet, or windy it might be!

Date:

Astronomy

Dec. 18, 2011 Rise Set
Actual Time 7:34 AM CST 5:36 PM CST
Civil Twilight 7:07 AM CST 6:03 PM CST
Nautical Twilight 6:36 AM CST 6:33 PM CST
Astronomical Twilight 6:06 AM CST 7:03 PM CST
Moon 12:54 AM CST (12/18) 12:47 PM CST (12/18)
Length of Visible Light 10h 55m
Length of Day
10h 01m
Last Quarter, 42% of the Moon is Illuminated
Dec 18
Last Quarter
Dec 24
New
Jan 1
First Quarter
Jan 9
Full
Jan 16
Last Quarter

Hourly Weather History & Observations

Time (CST) Temp. Dew Point Humidity Pressure Visibility Wind Dir Wind Speed Gust Speed Precip Events Conditions
12:52 AM 50.0 °F 37.0 °F 61% 30.38 in 10.0 mi Calm Calm - N/A   Overcast
1:52 AM 50.0 °F 36.0 °F 59% 30.36 in 10.0 mi SSE 5.8 mph - N/A   Overcast
2:52 AM 51.1 °F 34.0 °F 52% 30.34 in 10.0 mi SSE 3.5 mph - N/A   Overcast
3:52 AM 50.0 °F 33.1 °F 52% 30.33 in 10.0 mi South 3.5 mph - N/A   Overcast
4:52 AM 50.0 °F 34.0 °F 54% 30.31 in 10.0 mi Calm Calm - N/A   Overcast
5:52 AM 50.0 °F 34.0 °F 54% 30.32 in 10.0 mi Calm Calm - N/A   Overcast
6:52 AM 50.0 °F 34.0 °F 54% 30.30 in 10.0 mi South 3.5 mph - N/A   Overcast
7:52 AM 50.0 °F 32.0 °F 50% 30.29 in 10.0 mi South 6.9 mph - N/A   Overcast
8:52 AM 50.0 °F 32.0 °F 50% 30.30 in 10.0 mi South 10.4 mph - N/A   Overcast
9:52 AM 52.0 °F 32.0 °F 47% 30.30 in 10.0 mi South 10.4 mph - N/A   Overcast
10:52 AM 54.0 °F 36.0 °F 51% 30.29 in 10.0 mi SSW 15.0 mph - N/A   Overcast
11:52 AM 54.0 °F 39.9 °F 59% 30.26 in 10.0 mi South 13.8 mph - N/A   Overcast
12:52 PM 57.0 °F 44.1 °F 62% 30.20 in 10.0 mi SSW 18.4 mph 23.0 mph N/A   Overcast
1:16 PM 57.2 °F 44.6 °F 63% 30.20 in 10.0 mi South 15.0 mph 21.9 mph N/A   Mostly Cloudy
1:50 PM 59.0 °F 46.4 °F 63% 30.17 in 10.0 mi South 11.5 mph - N/A   Overcast
1:52 PM 59.0 °F 46.0 °F 62% 30.14 in 10.0 mi South 12.7 mph - N/A   Overcast
2:52 PM 59.0 °F 48.0 °F 67% 30.13 in 10.0 mi South 13.8 mph - N/A   Overcast
3:52 PM 57.9 °F 48.0 °F 70% 30.10 in 10.0 mi South 13.8 mph - N/A   Overcast
4:52 PM 57.9 °F 46.9 °F 67% 30.09 in 10.0 mi South 12.7 mph - N/A   Overcast
5:22 PM 57.2 °F 46.4 °F 67% 30.10 in 10.0 mi SSE 9.2 mph - N/A   Overcast
5:52 PM 55.9 °F 46.9 °F 72% 30.08 in 10.0 mi SSE 10.4 mph - N/A   Mostly Cloudy
6:52 PM 55.0 °F 46.9 °F 74% 30.05 in 10.0 mi SSE 15.0 mph - N/A   Scattered Clouds
7:52 PM 55.9 °F 48.0 °F 75% 30.06 in 10.0 mi South 15.0 mph 23.0 mph N/A   Scattered Clouds
8:17 PM 55.4 °F 48.2 °F 77% 30.08 in 10.0 mi South 10.4 mph - N/A   Mostly Cloudy
8:52 PM 55.0 °F 50.0 °F 83% 30.05 in 10.0 mi South 11.5 mph - N/A   Overcast
9:52 PM 55.0 °F 48.9 °F 80% 30.04 in 10.0 mi South 9.2 mph - N/A   Overcast
10:15 PM 53.6 °F 50.0 °F 88% 30.05 in 10.0 mi South 18.4 mph 25.3 mph N/A Thunderstorm Thunderstorm
10:42 PM 53.6 °F 48.2 °F 82% 30.05 in 10.0 mi SSE 12.7 mph - N/A Thunderstorm Thunderstorm
10:52 PM 54.0 °F 48.0 °F 80% 30.02 in 10.0 mi SSE 12.7 mph - N/A Thunderstorm Thunderstorm
11:28 PM 53.6 °F 46.4 °F 77% 30.02 in 10.0 mi SSE 20.7 mph 25.3 mph N/A Thunderstorm Thunderstorm
11:52 PM 53.1 °F 46.9 °F 80% 29.99 in 10.0 mi South 12.7 mph - N/A Thunderstorm Thunderstorm